Regional Weather Roundup
Issued by NWS San Diego, CA

Home | Current Version | Previous Version | Text Only | Print | Product List | Glossary On
Versions: 1 2 3 4 5 6 7 8 9 10 11 12 13 14 15 16 17 18 19 20 21 22 23 24 25 26 27 28 29 30 31 32 33 34 35 36 37 38 39 40 41 42 43 44 45 46 47 48 49 50
000
ASUS46 KSGX 211211
RWRSGX

SAN DIEGO HOURLY WEATHER ROUNDUP
NATIONAL WEATHER SERVICE SAN DIEGO CA
500 AM PDT THU SEP 21 2017

NOTE: "FAIR" INDICATES FEW OR NO CLOUDS BELOW 12,000 FEET WITH NO
SIGNIFICANT WEATHER AND/OR OBSTRUCTIONS TO VISIBILITY.

CAZ042-043-060-061-PZZ750-775-211300-

GREATER SAN DIEGO AREA

CITY           SKY/WX    TMP DP  RH WIND       PRES   REMARKS
SAN DIEGO AP   CLOUDY    68  57  68 S10       29.87S
NATIONAL CITY    N/A     68  59  72 SE5       29.88S
CHULA VISTA      N/A     67  59  76 CALM      29.78S
IMPERIAL BEACH CLOUDY    67  57  70 SE5       29.86S
BROWN FIELD    CLOUDY    66  55  67 VRB6      29.86S
MIRAMAR MCAS   CLOUDY    70  57  63 SE7       29.86R
MONTGOMERY FLD CLOUDY    69  55  60 SE5       29.86S
GILLESPIE FLD  CLOUDY    66  55  68 S6        29.87R

$$

NORTH SAN DIEGO COUNTY

CITY           SKY/WX    TMP DP  RH WIND       PRES   REMARKS
CAMP PENDLETON CLOUDY    68  55  63 CALM      29.85R
OCEANSIDE AP   CLOUDY    68  59  73 S6        29.84S
OCEANSIDE HBR    N/A     67  60  78 W6        29.87S
VISTA            N/A     65  58  76 CALM      29.83R
CARLSBAD       CLOUDY    67  58  72 SE5       29.85R
DEL MAR          N/A     66  59  78 CALM      29.87R
LA JOLLA SCRIP   N/A     66  59  77 SE3       29.84S
FALLBROOK        N/A     64  62  94 CALM      29.86S
ESCONDIDO        N/A     65  57  74 CALM      29.87S
SAN MARCOS       N/A     65  56  74 CALM      29.87R
POWAY            N/A     65  57  75 CALM      29.87R

$$

EAST SAN DIEGO COUNTY

CITY           SKY/WX    TMP DP  RH WIND       PRES   REMARKS
RAMONA         CLOUDY    62  56  80 S3        29.88S
SANTEE LAKES     N/A     66  57  73 SE3       29.84S
LA MESA          N/A     64  56  75 CALM      29.79S
JAMUL            N/A     62  56  80 CALM      29.85F
DESCANSO N       N/A     42  38  86 NE3       29.80R
CAMPO            N/A     52  48  86 N3        29.87S

$$

ORANGE COUNTY AND THE LOS ANGELES BASIN

CITY           SKY/WX    TMP DP  RH WIND       PRES   REMARKS
JOHN WAYNE AP  CLOUDY    67  59  75 S6        29.84S
LAGUNA BEACH     N/A     67  61  82 SE1       29.79S
LAKE FOREST FR   N/A     62  55  78 CALM      29.75R
HUNTINGTON BCH   N/A     67  62  83 CALM      29.85S
LOS ALAMITOS   CLOUDY    68  60  76 S8        29.83F
FULLERTON      CLOUDY    68  59  73 S8        29.83S
LONG BEACH     CLOUDY    67  62  84 S7        29.84S
L.A. AP        CLOUDY    67  62  84 SW7       29.83S
L.A. DOWNTOWN  CLOUDY    67  63  87 CALM      29.83S

$$

THE INLAND EMPIRE

CITY           SKY/WX    TMP DP  RH WIND       PRES   REMARKS
CORONA         CLOUDY    65  58  78 W3        29.84F
CHINO          CLOUDY    66  57  72 W6        29.85S
ONTARIO        CLOUDY    64  58  80 W10       29.84S
SAN BERNARDINO CLOUDY    66  59  79 CALM      29.86R
RIVERSIDE AP   CLOUDY    64  61  90 CALM      29.85R
MORENO VALLEY    N/A     61  60  95 CALM      27.97R
MARCH ARB      MOCLDY    63  56  77 S6        29.86R
HORSETHIEF CYN   N/A     61  52  72 CALM      29.84R
PERRIS           N/A     62  57  86 S3          N/A
HEMET EAST       N/A     60  54  80 CALM      29.88R
FRENCH VALLEY  CLOUDY    61  55  82 SW7       29.88R
TEMECULA         N/A     63  59  87 SW2       29.93S

$$

SAN BERNARDINO AND RIVERSIDE COUNTY MOUNTAINS

CITY           SKY/WX    TMP DP  RH WIND       PRES   REMARKS
BIG BEAR AP    CLEAR     45  36  70 SW3       29.97R
ANGELUS OAKS     N/A     46  42  88 CALM      29.70R
PINE COVE        N/A     53  41  64 N3        29.70S

$$

SOUTHERN DESERT INCLUDING THE COACHELLA VALLEY

CITY           SKY/WX    TMP DP  RH WIND       PRES   REMARKS
PALM SPRINGS   CLEAR     69  57  65 SE3       29.71R
THOUSAND PALMS   N/A     72  55  54 NW16      29.66S
PALM DESERT      N/A     68  56  65 CALM      30.60S
THERMAL        CLEAR     74  56  53 N10       29.67R
BLYTHE         CLEAR     74  48  39 S16       29.68S
IMPERIAL AP    CLEAR     73  43  33 W7        29.68R
EL CENTRO NAS  CLEAR     76  37  24 W14       29.70R
YUMA AZ        CLEAR     74  61  63 S5        29.70R

$$

UPPER DESERT

CITY           SKY/WX    TMP DP  RH WIND       PRES   REMARKS
VICTORVILLE AP CLEAR     55  50  82 CALM      29.82F
HESPERIA         N/A     58  54  87 SW16      29.84S
PALMDALE       CLEAR     61  54  77 W9        29.83S
LANCASTER      PTCLDY    60  53  77 SW17      29.83S
EDWARDS AFB    CLEAR     59  53  82 SW20      29.78S
DAGGETT        CLEAR     66  53  63 SW10      29.77R
29 PALMS N     CLEAR     66  46  48 W10       29.82R
NEEDLES        CLEAR     80  48  32 SW12      29.68R

$$

REGIONAL REPORTS

CITY           SKY/WX    TMP DP  RH WIND       PRES   REMARKS
SANTA BARBARA  CLEAR     58  55  90 CALM      29.82S
SANDBERG       FOG       53  51  93 SW12      29.89F VSB<1/4
LAS VEGAS NV   CLEAR     73  44  35 S15G23    29.64R
PHOENIX AZ     CLEAR     73  37  27 E7        29.77R
TIJUANA        CLOUDY    66  55  68 CALM      29.89
ENSENADA NW      N/A     65  32  28 CALM      29.85R

$$

OFFSHORE ISLANDS

CITY           SKY/WX    TMP DP  RH WIND       PRES   REMARKS
CATALINA ARPT  FOG       60  60 100 SW6       29.87S VSB 3/4
SAN NICOLAS IS   N/A     60  50  69 NW20G26   29.85S VSB 3/4

$$

MARINE AND OFFSHORE BUOY REPORTS

STATION/POSITION SKY/WX   TEMP    WIND        PRES    VSBY  SWELL
                          AIR SEA DIR/SP/G                  HT/PER/DIR
                          (F)     (DEG/KT/KT) (MB)    (MI)  (FT/S/D)
TANNER BANKS               65 67  310/ 16/ 17 1011.3R         7/330/12
S CLEMENTE BASIN           67 71  280/ 12/ 14 1010.8R         3/240/12
SAN NICOLAS IS.               64                N/A           5/300/13
SO. S. ROSA ISLA           62 64  310/ 17/ 21 1011.0R         5/320/13
W. S. BARBARA CH           61 62  320/ 12/ 16 1011.2R         5/300/13
M. S. BARBARA CH           64 67  270/ 17/ 21 1010.8R         2/250/ 7
S. MONICA BASIN               68  120/  4/  6 1009.6S         3/170/13
S PEDRO CHANNEL               67                N/A           2/170/13
CMP PENDLETON NS              69                N/A           2/210/12
OCEANSIDE OFFSHR              70                N/A           2/190/12
TORREY PINES OTR              70                N/A           2/230/11
SAN DIEGO BAY                 73              1011.4R
POINT LOMA SOUTH              72                N/A           2/240/13

$$





USA.gov is the U.S. government's official web portal to all federal, state and local government web resources and services.